Location: Sobotiste
(48.7170°N, 17.4000°E)
Time: 09:12:03
(UTC+02:00)

YUBILEINY - Pass Details

Date: 19 March 2026
Orbit: 1477 x 1509 km, 82.5° (Epoch: 17 April)

Event Time Altitude Azimuth Distance (km) Brightness Sun altitude
Rises 23:45:59 0° 352° (N) 4,622 ? -41.5°
Reaches altitude 10° 23:51:21 10° 19° (NNE) 3,632 ? -41.5°
Maximum altitude 23:54:59 13° 44° (NE) 3,396 ? -41.5°
Drops below altitude 10° 23:58:37 10° 69° (ENE) 3,621 ? -41.5°
Sets 00:03:53 0° 96° (E) 4,595 ? -41.5°
